period_start,C,m1,H,J0,J1,J2,J3,J4,J5,JA,JB,JC,JD,JJ,JK,JN,#
2016-02-11 00:04:16,0.18,5.89,0.00,15.89,19.69,23.71,15.07,49.05,1028.33,2060.01,1851.89,1951.29,2195.82,600.36,618.11,54.15,0000 0000 0000 0000 000000
2016-02-11 00:09:18,0.18,5.90,0.00,15.90,19.69,23.73,15.04,49.04,1028.33,2060.01,1850.19,1949.86,2194.34,599.85,617.55,54.20,0000 0000 0000 0000 000000
2016-02-11 00:14:19,0.20,5.91,0.00,15.91,19.69,23.67,15.13,49.01,1028.33,2060.01,1848.49,1948.53,2192.81,600.33,617.91,54.25,0000 0000 0000 0000 000000
2016-02-11 00:19:20,0.17,5.92,0.00,15.90,19.69,23.73,15.10,49.02,1028.35,2060.00,1846.83,1947.28,2191.36,599.83,617.52,54.30,0000 0000 0000 0000 000000
2016-02-11 00:24:21,0.18,5.93,0.00,15.89,19.68,23.77,15.09,49.13,1028.38,2060.01,1845.18,1945.95,2189.84,600.01,617.78,54.35,0000 0000 0000 0000 000000
2016-02-11 00:29:22,0.20,5.94,0.00,15.89,19.68,23.69,15.11,49.08,1028.35,2060.00,1843.44,1944.57,2188.29,600.10,617.85,54.40,0000 0000 0000 0000 000000
2016-02-11 00:34:23,0.18,5.95,0.00,15.90,19.68,23.65,15.03,48.98,1028.36,2060.02,1841.75,1943.29,2186.74,599.78,617.63,54.45,0000 0000 0000 0000 000000
2016-02-11 00:39:25,0.19,5.96,0.00,15.92,19.68,23.65,15.10,48.99,1028.35,2060.02,1840.05,1941.89,2185.27,599.66,617.25,54.50,0000 0000 0000 0000 000000
2016-02-11 00:44:26,0.20,5.97,0.00,15.92,19.69,23.71,15.10,49.07,1028.35,2060.02,1838.31,1940.54,2183.73,600.01,617.70,54.55,0000 0000 0000 0000 000000
2016-02-11 00:49:28,0.18,5.98,0.00,15.92,19.69,23.67,15.11,49.08,1028.35,2060.01,1836.53,1939.14,2182.17,599.99,617.69,54.60,0000 0000 0000 0000 000000
2016-02-11 00:54:29,0.21,5.99,0.00,15.93,19.69,23.73,15.06,49.13,1028.34,2060.02,1834.80,1937.74,2180.59,599.54,617.20,54.65,0000 0000 0000 0000 000000
2016-02-11 00:59:30,0.18,6.00,0.00,15.94,19.69,23.71,15.15,49.10,1028.35,2060.01,1833.09,1936.46,2179.03,599.91,617.67,54.70,0000 0000 0000 0000 000000
2016-02-11 01:04:31,0.20,6.01,0.00,15.92,19.69,23.74,15.05,49.09,1028.35,2060.01,1831.28,1935.02,2177.48,599.57,617.07,54.75,0000 0000 0000 0000 000000
2016-02-11 01:09:33,0.20,6.02,0.00,15.90,19.69,23.69,15.08,49.19,1028.50,2060.01,1829.61,1933.66,2175.91,599.97,617.81,54.80,0000 0000 0000 0000 000000
2016-02-11 01:14:34,0.19,6.03,0.00,15.93,19.70,23.74,15.21,49.30,1028.57,2060.01,1827.86,1932.27,2174.43,599.93,617.85,54.85,0000 0000 0000 0000 000000
2016-02-11 01:19:35,0.21,6.04,0.00,15.92,19.72,23.71,15.18,49.15,1028.52,2060.00,1826.05,1930.80,2172.81,600.03,617.86,54.90,0000 0000 0000 0000 000000
2016-02-11 01:24:36,0.20,6.05,0.00,15.92,19.72,23.69,15.16,49.23,1028.66,2060.01,1824.23,1929.46,2171.27,600.17,617.99,54.95,0000 0000 0000 0000 000000
2016-02-11 01:29:38,0.20,6.06,0.00,15.95,19.72,23.72,15.15,49.19,1028.76,2060.00,1822.38,1928.00,2169.64,599.98,617.86,55.00,0000 0000 0000 0000 000000
2016-02-11 01:34:39,0.21,6.07,0.00,15.95,19.72,23.77,15.02,49.32,1028.81,2060.00,1820.60,1926.61,2168.00,600.24,618.12,55.06,0000 0000 0000 0000 000000
2016-02-11 01:39:41,0.19,6.08,0.00,15.96,19.72,23.76,15.06,49.25,1028.82,2060.00,1818.81,1925.19,2166.42,599.82,617.78,55.11,0000 0000 0000 0000 000000
2016-02-11 01:44:42,0.22,6.09,0.00,15.95,19.73,23.70,15.06,49.67,1028.82,2060.00,1816.95,1923.76,2164.79,600.12,618.02,55.16,0000 0000 0000 0000 000000
2016-02-11 01:49:43,0.18,6.10,0.00,15.97,19.74,23.77,15.15,49.59,1028.82,2060.00,1815.26,1922.41,2163.26,600.12,618.05,55.21,0000 0000 0000 0000 000000
2016-02-11 01:54:44,0.21,6.11,0.00,15.97,19.74,23.76,15.03,49.66,1028.82,2060.00,1813.57,1920.97,2161.69,600.19,618.08,55.26,0000 0000 0000 0000 000000
2016-02-11 01:59:45,0.19,6.12,0.00,15.98,19.75,23.74,15.13,49.52,1028.81,2060.00,1811.80,1919.67,2160.18,600.22,617.90,55.31,0000 0000 0000 0000 000000
2016-02-11 02:04:46,0.20,6.13,0.00,16.00,19.77,23.77,15.15,49.48,1028.81,2060.00,1810.05,1918.34,2158.59,599.92,617.69,55.36,0000 0000 0000 0000 000000
2016-02-11 02:09:47,0.23,6.14,0.00,16.00,19.77,23.76,15.09,49.53,1028.82,2060.00,1808.19,1916.74,2156.83,599.68,617.44,55.41,0000 0000 0000 0000 000000
2016-02-11 02:14:48,0.18,6.15,0.00,16.01,19.78,23.74,15.02,49.58,1028.82,2059.98,1806.48,1915.43,2155.28,599.80,617.57,55.46,0000 0000 0000 0000 000000
2016-02-11 02:19:50,0.21,6.17,0.00,16.02,19.79,23.83,15.08,49.30,1028.82,2059.99,1804.68,1913.95,2153.64,599.74,617.40,55.51,0000 0000 0000 0000 000000
2016-02-11 02:24:51,0.18,6.18,0.00,16.04,19.80,23.85,15.15,49.30,1028.82,2059.98,1803.02,1912.65,2152.16,599.93,617.62,55.56,0000 0000 0000 0000 000000
2016-02-11 02:29:52,0.19,6.19,0.00,16.06,19.82,23.79,15.04,49.17,1028.84,2059.97,1801.36,1911.27,2150.54,599.87,617.53,55.61,0000 0000 0000 0000 000000
2016-02-11 02:34:54,0.23,6.20,0.00,16.06,19.82,23.82,15.05,49.38,1028.84,2059.96,1799.51,1909.72,2148.82,599.73,617.38,55.66,0000 0000 0000 0000 000000
2016-02-11 02:39:55,0.20,6.21,0.00,16.05,19.82,23.86,15.09,49.34,1028.84,2059.96,1797.70,1908.33,2147.21,599.74,617.56,55.71,0000 0000 0000 0000 000000
2016-02-11 02:44:56,0.21,6.22,0.00,16.07,19.84,23.85,15.06,49.38,1028.84,2059.95,1795.86,1906.87,2145.61,599.86,617.49,55.76,0000 0000 0000 0000 000000
2016-02-11 02:49:57,0.21,6.23,0.00,16.07,19.84,23.87,15.13,49.38,1028.83,2059.93,1794.03,1905.47,2143.95,600.25,617.94,55.81,0000 0000 0000 0000 000000
2016-02-11 02:54:59,0.18,6.24,0.00,16.08,19.84,23.87,15.14,49.28,1028.83,2059.88,1792.22,1903.98,2142.27,600.28,617.85,55.86,0000 0000 0000 0000 000000
2016-02-11 03:00:00,0.21,6.25,0.00,16.07,19.84,23.93,15.08,49.32,1028.84,2059.78,1790.49,1902.59,2140.64,599.99,617.67,55.91,0000 0000 0000 0000 000000
2016-02-11 03:05:01,0.20,6.26,0.00,16.08,19.84,23.84,15.12,49.24,1028.85,2059.79,1788.69,1901.21,2139.07,599.92,617.55,55.97,0000 0000 0000 0000 000000
2016-02-11 03:10:03,0.20,6.27,0.00,16.10,19.86,23.91,15.01,49.23,1028.84,2059.89,1787.07,1899.85,2137.57,599.88,617.45,56.02,0000 0000 0000 0000 000000
2016-02-11 03:15:04,0.18,6.28,0.00,16.10,19.87,23.88,15.06,49.33,1028.99,2059.75,1785.36,1898.49,2135.95,599.79,617.41,56.07,0000 0000 0000 0000 000000
2016-02-11 03:20:06,0.19,6.29,0.00,16.10,19.87,23.84,15.06,49.30,1029.12,2059.59,1783.56,1897.02,2134.34,599.96,617.71,56.12,0000 0000 0000 0000 000000
2016-02-11 03:25:07,0.17,6.30,0.00,16.12,19.87,23.88,15.08,49.30,1029.16,2059.20,1781.78,1895.60,2132.71,599.79,617.59,56.17,0000 0000 0000 0000 000000
2016-02-11 03:30:08,0.21,6.31,0.00,16.12,19.87,23.86,15.01,49.28,1029.28,2059.29,1779.96,1894.26,2131.14,599.78,617.49,56.22,0000 0000 0000 0000 000000
2016-02-11 03:35:09,0.19,6.32,0.00,16.14,19.87,23.86,15.06,49.29,1029.31,2059.15,1778.22,1892.81,2129.58,599.79,617.58,56.27,0000 0000 0000 0000 000000
2016-02-11 03:40:11,0.20,6.33,0.00,16.18,19.89,23.84,15.14,49.26,1029.31,2059.12,1776.58,1891.49,2127.96,600.04,617.74,56.32,0000 0000 0000 0000 000000
2016-02-11 03:45:12,0.19,6.34,0.00,16.19,19.89,23.84,15.18,49.36,1029.31,2059.09,1774.78,1890.08,2126.46,600.26,617.95,56.37,0000 0000 0000 0000 000000
2016-02-11 03:50:13,0.21,6.35,0.00,16.18,19.89,23.91,15.15,49.28,1029.31,2059.06,1773.11,1888.72,2124.86,600.06,617.76,56.42,0000 0000 0000 0000 000000
2016-02-11 03:55:14,0.19,6.36,0.00,16.18,19.91,23.93,15.12,49.26,1029.31,2059.05,1771.31,1887.36,2123.33,600.19,617.87,56.47,0000 0000 0000 0000 000000
2016-02-11 04:00:15,0.21,6.37,0.00,16.21,19.92,23.92,15.17,49.59,1029.31,2059.03,1769.56,1885.84,2121.72,599.93,617.64,56.52,0000 0000 0000 0000 000000
2016-02-11 04:05:17,0.21,6.38,0.00,16.23,19.92,23.93,15.20,49.49,1029.31,2059.01,1767.80,1884.47,2120.06,600.21,617.77,56.57,0000 0000 0000 0000 000000
2016-02-11 04:10:18,0.21,6.39,0.00,16.26,19.94,23.95,15.10,49.51,1029.31,2059.01,1765.97,1883.02,2118.46,599.95,617.48,56.62,0000 0000 0000 0000 000000
2016-02-11 04:15:19,0.21,6.40,0.00,16.25,19.95,23.92,15.09,49.41,1029.31,2059.00,1764.24,1881.60,2116.82,600.16,617.80,56.67,0000 0000 0000 0000 000000
2016-02-11 04:20:21,0.21,6.41,0.00,16.26,19.97,23.95,15.05,49.27,1029.31,2059.00,1762.45,1880.20,2115.22,599.80,617.32,56.72,0000 0000 0000 0000 000000
2016-02-11 04:25:22,0.20,6.42,0.00,16.29,19.99,24.00,15.11,49.31,1029.37,2059.00,1760.80,1878.80,2113.66,599.96,617.46,56.77,0000 0000 0000 0000 000000
2016-02-11 04:30:23,0.22,6.43,0.00,16.30,20.00,23.97,15.04,49.37,1029.40,2059.00,1759.10,1877.50,2112.16,599.71,617.15,56.82,0000 0000 0000 0000 000000
2016-02-11 04:35:24,0.19,6.44,0.00,16.32,20.02,23.99,15.08,49.41,1029.36,2059.00,1757.26,1876.08,2110.70,600.02,617.61,56.88,0000 0000 0000 0000 000000
2016-02-11 04:40:26,0.19,6.46,0.00,16.33,20.04,24.03,15.09,49.39,1029.37,2059.00,1755.75,1874.74,2109.27,599.98,617.43,56.93,0000 0000 0000 0000 000000
2016-02-11 04:45:27,0.21,6.46,0.00,16.33,20.05,24.08,15.15,49.44,1029.38,2058.97,1754.03,1873.38,2107.62,600.23,617.66,56.98,0000 0000 0000 0000 000000
2016-02-11 04:50:28,0.20,6.48,0.00,16.32,20.07,24.11,15.08,49.48,1029.41,2058.98,1752.29,1871.95,2106.04,599.84,617.23,57.03,0000 0000 0000 0000 000000
2016-02-11 04:55:30,0.22,6.49,0.00,16.34,20.09,24.10,15.10,49.37,1029.59,2058.93,1750.56,1870.57,2104.49,600.02,617.48,57.08,0000 0000 0000 0000 000000
2016-02-11 05:00:31,0.16,6.50,0.00,16.35,20.09,24.07,15.07,49.37,1029.74,2058.66,1748.76,1869.19,2102.88,599.79,617.27,57.13,0000 0000 0000 0000 000000
2016-02-11 05:05:32,0.20,6.51,0.00,16.37,20.11,24.10,15.13,49.44,1029.78,2058.59,1747.10,1867.80,2101.40,600.09,617.66,57.18,0000 0000 0000 0000 000000
2016-02-11 05:10:33,0.18,6.52,0.00,16.40,20.12,24.11,15.06,49.33,1029.80,2058.42,1745.34,1866.48,2099.81,599.85,617.32,57.23,0000 0000 0000 0000 000000
2016-02-11 05:15:34,0.19,6.53,0.00,16.37,20.13,24.12,15.03,49.33,1029.80,2058.17,1743.48,1865.02,2098.23,599.71,617.41,57.28,0000 0000 0000 0000 000000
2016-02-11 05:20:35,0.20,6.53,0.00,16.41,20.14,24.12,15.10,49.39,1029.80,2058.06,1741.72,1863.64,2096.64,600.17,617.48,57.33,0000 0000 0000 0000 000000
2016-02-11 05:25:37,0.20,6.55,0.00,16.42,20.16,24.13,15.17,49.43,1029.80,2058.03,1739.98,1862.32,2095.10,600.54,618.00,57.38,0000 0000 0000 0000 000000
2016-02-11 05:30:38,0.19,6.56,0.00,16.41,20.17,24.16,15.09,49.41,1029.80,2058.02,1738.46,1860.91,2093.60,600.04,617.50,57.43,0000 0000 0000 0000 000000
2016-02-11 05:35:39,0.21,6.57,0.00,16.39,20.18,24.20,15.06,49.46,1029.80,2058.02,1736.76,1859.66,2092.12,599.92,617.52,57.48,0000 0000 0000 0000 000000
2016-02-11 05:40:40,0.19,6.58,0.00,16.43,20.19,24.14,15.08,49.32,1029.83,2058.01,1735.08,1858.37,2090.64,599.80,617.20,57.53,0000 0000 0000 0000 000000
2016-02-11 05:45:42,0.19,6.59,0.00,16.47,20.22,24.21,15.05,49.44,1029.94,2058.00,1733.52,1857.00,2089.12,599.72,617.18,57.58,0000 0000 0000 0000 000000
2016-02-11 05:50:43,0.22,6.60,0.00,16.45,20.23,24.20,15.13,49.42,1030.17,2058.00,1731.82,1855.65,2087.57,600.00,617.67,57.63,0000 0000 0000 0000 000000
2016-02-11 05:55:44,0.19,6.61,0.00,16.50,20.24,24.23,15.16,49.47,1030.22,2058.00,1730.08,1854.51,2086.03,600.32,617.84,57.68,0000 0000 0000 0000 000000
2016-02-11 06:00:45,0.19,6.62,0.00,16.54,20.27,24.27,15.10,49.39,1030.23,2058.00,1728.36,1853.11,2084.47,599.83,617.32,57.73,0000 0000 0000 0000 000000
2016-02-11 06:05:46,0.22,6.63,0.00,16.52,20.28,24.26,15.05,49.45,1030.28,2058.00,1726.72,1851.71,2082.84,599.67,617.22,57.79,0000 0000 0000 0000 000000
2016-02-11 06:10:48,0.20,6.64,0.00,16.54,20.29,24.26,15.09,49.40,1030.29,2057.98,1725.06,1850.37,2081.36,600.18,617.65,57.84,0000 0000 0000 0000 000000
2016-02-11 06:15:49,0.22,6.65,0.00,16.54,20.30,24.26,15.07,49.35,1030.29,2057.98,1723.33,1848.95,2079.73,600.16,617.77,57.89,0000 0000 0000 0000 000000
2016-02-11 06:20:50,0.22,6.66,0.00,16.55,20.32,24.31,15.06,49.48,1030.29,2057.98,1721.41,1847.56,2078.11,599.85,617.36,57.94,0000 0000 0000 0000 000000
2016-02-11 06:25:52,0.19,6.67,0.00,16.56,20.33,24.34,15.13,49.41,1030.29,2057.95,1719.88,1846.26,2076.63,600.13,617.70,57.99,0000 0000 0000 0000 000000
2016-02-11 06:30:53,0.18,6.68,0.00,16.56,20.34,24.29,15.12,49.52,1030.29,2057.92,1718.22,1844.86,2075.14,600.02,617.65,58.04,0000 0000 0000 0000 000000
2016-02-11 06:35:54,0.20,6.69,0.00,16.58,20.36,24.34,15.06,49.39,1030.29,2057.67,1716.71,1843.62,2073.65,600.03,617.51,58.09,0000 0000 0000 0000 000000
2016-02-11 06:40:55,0.12,6.70,0.00,16.59,20.37,24.37,15.05,49.31,1030.29,2057.43,1715.15,1842.39,2072.20,599.67,617.08,58.14,0000 0000 0000 0000 000000
2016-02-11 06:45:57,0.17,6.71,0.00,16.62,20.39,24.35,15.09,49.35,1030.29,2057.25,1713.53,1841.09,2070.72,600.09,617.45,58.19,0000 0000 0000 0000 000000
2016-02-11 06:50:58,0.19,6.72,0.00,16.64,20.39,24.40,15.07,49.36,1030.29,2057.08,1711.89,1839.77,2069.33,599.80,616.96,58.24,0000 0000 0000 0000 000000
2016-02-11 06:55:59,0.19,6.73,0.00,16.64,20.42,24.40,15.05,49.32,1030.30,2057.04,1710.37,1838.52,2067.81,599.83,617.19,58.29,0000 0000 0000 0000 000000
2016-02-11 07:01:00,0.18,6.74,0.00,16.63,20.42,24.40,15.05,49.33,1030.30,2057.03,1708.85,1837.40,2066.53,599.92,617.24,58.34,0000 0000 0000 0000 000000
2016-02-11 07:06:02,0.17,6.75,0.00,16.63,20.44,24.41,15.10,49.48,1030.29,2057.02,1707.33,1836.16,2065.15,600.20,617.56,58.39,0000 0000 0000 0000 000000
2016-02-11 07:11:03,0.17,6.76,0.00,16.64,20.44,24.42,15.12,49.43,1030.33,2057.00,1705.91,1834.95,2063.78,600.06,617.41,58.44,0000 0000 0000 0000 000000
2016-02-11 07:16:05,0.19,6.76,0.00,16.66,20.46,24.50,15.12,49.33,1030.32,2057.00,1704.55,1833.81,2062.52,600.04,617.40,58.49,0000 0000 0000 0000 000000
2016-02-11 07:21:06,0.18,6.77,0.00,16.68,20.47,24.45,15.18,49.40,1030.33,2057.00,1702.99,1832.62,2061.08,600.00,617.25,58.54,0000 0000 0000 0000 000000
2016-02-11 07:26:08,0.18,6.78,0.00,16.69,20.47,24.39,14.99,49.42,1030.33,2057.00,1701.52,1831.46,2059.79,599.63,616.87,58.59,0000 0000 0000 0000 000000
2016-02-11 07:31:09,0.20,6.79,0.00,16.69,20.47,24.43,15.08,49.27,1030.37,2057.00,1699.86,1830.29,2058.42,599.61,616.81,58.64,0000 0000 0000 0000 000000
2016-02-11 07:36:10,0.17,6.80,0.00,16.72,20.49,24.42,15.02,49.31,1030.40,2057.00,1698.34,1829.06,2057.07,599.97,617.04,58.70,0000 0000 0000 0000 000000
2016-02-11 07:41:11,0.17,6.81,0.00,16.72,20.49,24.51,15.07,49.22,1030.41,2057.00,1696.97,1827.93,2055.78,600.02,617.23,58.75,0000 0000 0000 0000 000000
2016-02-11 07:46:13,0.20,6.82,0.00,16.73,20.49,24.46,15.08,49.36,1030.46,2056.99,1695.50,1826.77,2054.55,599.91,617.17,58.80,0000 0000 0000 0000 000000
2016-02-11 07:51:14,0.17,6.83,0.00,16.73,20.49,24.51,15.14,49.30,1030.62,2056.99,1693.96,1825.65,2053.20,599.84,617.21,58.85,0000 0000 0000 0000 000000
2016-02-11 07:56:15,0.19,6.84,0.00,16.75,20.51,24.52,15.07,49.38,1030.67,2056.98,1692.54,1824.48,2051.82,599.61,616.95,58.90,0000 0000 0000 0000 000000
2016-02-11 08:01:17,0.17,6.85,0.00,16.74,20.52,24.53,15.11,49.27,1030.65,2056.98,1691.10,1823.29,2050.49,599.98,617.27,58.95,0000 0000 0000 0000 000000
2016-02-11 08:06:18,0.18,6.86,0.00,16.76,20.52,24.47,15.10,49.13,1030.69,2056.97,1689.71,1822.05,2049.14,600.17,617.60,59.00,0000 0000 0000 0000 000000
2016-02-11 08:11:19,0.21,6.87,0.00,16.77,20.54,24.48,15.07,49.13,1030.47,2056.95,1688.07,1820.76,2047.56,599.99,617.00,59.05,0000 0000 0000 0000 000000
2016-02-11 08:16:20,0.19,6.88,0.00,16.78,20.54,24.52,15.02,49.16,1030.61,2056.94,1686.49,1819.56,2046.53,599.42,616.65,59.10,0000 0000 0000 0000 000000
2016-02-11 08:21:22,0.17,6.89,0.00,16.78,20.54,24.54,15.11,49.23,1030.69,2056.95,1685.00,1818.43,2045.23,599.56,616.76,59.15,0000 0000 0000 0000 000000
2016-02-11 08:26:23,0.19,6.90,0.00,16.79,20.55,24.52,15.06,49.07,1030.75,2056.87,1683.47,1817.16,2043.73,599.82,616.98,59.20,0000 0000 0000 0000 000000
2016-02-11 08:31:24,0.17,6.91,0.00,16.79,20.57,24.45,15.07,49.06,1030.76,2056.79,1681.99,1815.95,2042.42,599.94,617.32,59.25,0000 0000 0000 0000 000000
2016-02-11 08:36:26,0.20,6.92,0.00,16.80,20.57,24.57,15.07,49.05,1030.77,2056.78,1680.48,1814.73,2041.02,599.78,616.94,59.30,0000 0000 0000 0000 000000
2016-02-11 08:41:27,0.15,6.93,0.00,16.82,20.57,24.54,15.09,48.99,1030.78,2056.39,1678.96,1813.52,2039.63,600.09,617.30,59.35,0000 0000 0000 0000 000000
2016-02-11 08:46:29,0.17,6.93,0.00,16.82,20.57,24.58,15.05,48.83,1030.78,2056.29,1677.38,1812.32,2038.22,600.01,617.21,59.40,0000 0000 0000 0000 000000
2016-02-11 08:51:30,0.23,6.95,0.00,16.84,20.57,24.59,15.07,49.11,1030.78,2056.37,1675.64,1811.02,2036.76,599.99,617.11,59.45,0000 0000 0000 0000 000000
2016-02-11 08:56:32,0.20,6.96,0.00,16.83,20.57,24.58,15.06,49.13,1030.78,2056.44,1673.98,1809.76,2035.48,600.01,617.18,59.50,0000 0000 0000 0000 000000
2016-02-11 09:01:33,0.19,6.97,0.00,16.85,20.57,24.55,14.99,48.91,1030.78,2056.30,1672.36,1808.52,2033.98,599.40,616.59,59.55,0000 0000 0000 0000 000000
2016-02-11 09:06:35,0.21,6.98,0.00,16.87,20.58,24.55,15.09,48.99,1030.78,2056.34,1670.70,1807.34,2032.61,600.05,617.01,59.60,0000 0000 0000 0000 000000
2016-02-11 09:11:36,0.17,6.99,0.00,16.87,20.59,24.56,15.07,49.11,1030.78,2056.31,1669.19,1806.04,2031.29,600.11,617.20,59.66,0000 0000 0000 0000 000000
2016-02-11 09:16:37,0.21,7.00,0.00,16.87,20.59,24.50,15.08,49.17,1030.78,2056.14,1667.56,1804.74,2029.71,600.34,617.47,59.71,0000 0000 0000 0000 000000
2016-02-11 09:21:39,0.22,7.01,0.00,16.87,20.59,24.55,15.09,49.25,1030.78,2056.18,1665.80,1803.44,2028.20,599.81,616.94,59.76,0000 0000 0000 0000 000000
2016-02-11 09:26:40,0.22,7.02,0.00,16.84,20.59,24.54,15.13,49.16,1030.78,2056.39,1664.22,1802.15,2026.77,600.71,617.84,59.81,0000 0000 0000 0000 000000
2016-02-11 09:31:41,0.19,7.03,0.00,16.86,20.60,24.58,15.06,49.27,1030.78,2056.33,1662.63,1800.80,2025.34,600.22,617.44,59.86,0000 0000 0000 0000 000000
2016-02-11 09:36:43,0.20,7.04,0.00,16.87,20.61,24.59,15.05,49.24,1030.78,2056.13,1660.92,1799.49,2023.84,599.91,616.97,59.91,0000 0000 0000 0000 000000
2016-02-11 09:41:44,0.18,7.05,0.00,16.87,20.62,24.60,15.03,49.22,1030.78,2056.06,1659.30,1798.14,2022.30,599.93,617.03,59.96,0000 0000 0000 0000 000000
2016-02-11 09:46:45,0.23,7.06,0.00,16.89,20.62,24.58,15.06,49.31,1030.78,2056.06,1657.71,1796.84,2020.78,600.01,617.17,60.01,0000 0000 0000 0000 000000
2016-02-11 09:51:46,0.21,7.07,0.00,16.87,20.62,24.61,15.18,49.37,1030.78,2056.05,1656.02,1795.51,2019.30,600.28,617.37,60.06,0000 0000 0000 0000 000000
2016-02-11 09:56:48,0.19,7.08,0.00,16.88,20.64,24.69,15.14,49.34,1030.78,2056.01,1654.49,1794.26,2017.77,600.24,617.37,60.11,0000 0000 0000 0000 000000
2016-02-11 10:01:49,0.23,1.89,0.00,16.90,20.68,24.61,13.12,42.55,1030.78,2059.66,3108.52,2822.38,3196.29,529.09,544.12,0.00,0000 0000 0000 0000 000000
2016-02-11 10:06:50,0.23,0.00,0.00,16.92,20.67,24.53,15.07,48.18,1030.78,2060.97,3631.66,3193.38,3621.97,599.84,616.78,0.05,0000 0000 0000 0000 000000
2016-02-11 10:11:52,0.24,0.01,0.00,16.92,20.66,24.57,15.04,48.23,1030.79,2060.97,3626.67,3190.05,3618.11,599.84,616.87,0.10,0000 0000 0000 0000 000000
2016-02-11 10:16:53,0.23,0.02,0.00,16.92,20.67,24.64,15.07,48.21,1030.79,2060.81,3622.16,3186.90,3614.52,599.65,616.73,0.15,0000 0000 0000 0000 000000
2016-02-11 10:21:54,0.21,0.03,0.00,16.93,20.67,24.62,15.01,48.12,1030.79,2060.53,3617.83,3183.80,3610.91,599.85,616.81,0.20,0000 0000 0000 0000 000000
2016-02-11 10:26:55,0.20,0.04,0.00,16.94,20.68,24.68,15.08,48.04,1030.79,2060.45,3613.53,3180.72,3607.39,599.82,616.79,0.25,0000 0000 0000 0000 000000
2016-02-11 10:31:56,0.18,0.05,0.00,16.95,20.69,24.71,15.07,47.96,1030.80,2060.35,3609.34,3177.69,3603.96,600.08,617.03,0.30,0000 0000 0000 0000 000000
2016-02-11 10:36:57,0.17,0.06,0.00,16.95,20.70,24.65,15.07,47.99,1030.84,2060.12,3605.12,3174.61,3600.43,600.12,617.18,0.35,0000 0000 0000 0000 000000
2016-02-11 10:41:58,0.17,0.06,0.00,16.97,20.72,24.66,15.06,48.10,1030.85,2060.08,3600.95,3171.60,3597.01,600.03,616.96,0.40,0000 0000 0000 0000 000000
2016-02-11 10:47:00,0.18,0.07,0.00,16.97,20.73,24.70,15.17,48.03,1030.81,2060.04,3596.79,3168.57,3593.57,600.14,617.07,0.45,0000 0000 0000 0000 000000
2016-02-11 10:52:01,0.18,0.08,0.00,16.96,20.74,24.62,15.09,47.99,1030.82,2060.01,3592.64,3165.50,3590.05,600.27,617.22,0.50,0000 0000 0000 0000 000000
2016-02-11 10:57:02,0.18,0.09,0.00,16.97,20.75,24.69,15.03,47.95,1030.84,2060.02,3588.63,3162.52,3586.63,599.96,616.73,0.55,0000 0000 0000 0000 000000
2016-02-11 11:02:03,0.18,0.10,0.00,16.98,20.77,24.72,15.15,48.06,1030.96,2060.00,3584.56,3159.45,3583.22,600.21,616.93,0.60,0000 0000 0000 0000 000000
2016-02-11 11:07:05,0.18,0.11,0.00,16.99,20.78,24.77,15.12,48.02,1030.93,2060.01,3580.61,3156.46,3579.95,599.77,616.71,0.65,0000 0000 0000 0000 000000
2016-02-11 11:12:06,0.19,0.12,0.00,16.99,20.79,24.77,15.03,47.94,1030.92,2060.00,3576.46,3153.43,3576.46,599.87,616.79,0.70,0000 0000 0000 0000 000000
2016-02-11 11:17:07,0.18,0.13,0.00,17.01,20.81,24.68,15.01,47.88,1030.85,2060.00,3572.37,3150.42,3573.05,599.55,616.44,0.75,0000 0000 0000 0000 000000
2016-02-11 11:22:08,0.18,0.14,0.00,17.02,20.82,24.71,15.03,47.79,1030.83,2059.99,3568.24,3147.38,3569.61,599.91,616.78,0.80,0000 0000 0000 0000 000000
2016-02-11 11:27:10,0.18,0.15,0.00,17.02,20.82,24.80,15.12,47.79,1030.87,2059.99,3564.25,3144.42,3566.22,600.42,617.23,0.85,0000 0000 0000 0000 000000
2016-02-11 11:32:11,0.18,0.16,0.00,17.02,20.84,24.81,15.00,47.78,1030.94,2059.98,3560.23,3141.43,3562.83,599.93,616.80,0.90,0000 0000 0000 0000 000000
2016-02-11 11:37:12,0.19,0.17,0.00,17.03,20.84,24.76,15.08,47.83,1030.97,2059.97,3556.11,3138.39,3559.29,599.98,616.99,0.95,0000 0000 0000 0000 000000
2016-02-11 11:42:14,0.18,0.18,0.00,17.05,20.86,24.79,15.08,47.88,1031.03,2059.98,3551.91,3135.35,3555.88,600.14,616.98,1.00,0000 0000 0000 0000 000000
2016-02-11 11:47:15,0.19,0.19,0.00,17.06,20.87,24.81,15.02,47.81,1031.14,2059.95,3547.66,3132.35,3552.34,600.15,617.08,1.05,0000 0000 0000 0000 000000
2016-02-11 11:52:16,0.19,0.20,0.00,17.05,20.87,24.85,15.10,47.88,1031.15,2059.86,3543.29,3129.14,3548.63,600.35,617.24,1.10,0000 0000 0000 0000 000000
2016-02-11 11:57:18,0.19,0.21,0.00,17.03,20.88,24.84,15.04,47.77,1031.16,2059.79,3538.99,3125.93,3545.06,600.05,617.27,1.15,0000 0000 0000 0000 000000
2016-02-11 12:02:19,0.19,0.22,0.00,17.05,20.89,24.86,15.00,47.73,1031.12,2059.74,3534.72,3122.78,3541.44,599.52,616.45,1.20,0000 0000 0000 0000 000000
2016-02-11 12:07:21,0.17,0.23,0.00,17.06,20.89,24.88,15.00,47.81,1031.20,2059.46,3530.49,3119.62,3537.86,599.59,616.54,1.25,0000 0000 0000 0000 000000
2016-02-11 12:12:22,0.18,0.24,0.00,17.07,20.89,24.83,15.08,47.67,1031.24,2059.32,3526.25,3116.48,3534.29,600.45,617.36,1.30,0000 0000 0000 0000 000000
2016-02-11 12:17:23,0.19,0.25,0.00,17.09,20.90,24.88,15.08,47.67,1031.22,2059.14,3521.93,3113.26,3530.53,599.96,616.85,1.35,0000 0000 0000 0000 000000
2016-02-11 12:22:25,0.20,0.25,0.00,17.08,20.92,24.84,15.03,47.58,1031.17,2059.18,3517.87,3110.13,3526.90,600.14,617.05,1.40,0000 0000 0000 0000 000000
2016-02-11 12:27:26,0.18,0.26,0.00,17.09,20.92,24.88,15.06,47.60,1031.18,2059.18,3513.72,3107.02,3523.35,599.99,616.88,1.45,0000 0000 0000 0000 000000
2016-02-11 12:32:27,0.19,0.28,0.00,17.09,20.92,24.87,15.02,47.60,1031.21,2059.07,3509.44,3103.80,3519.80,600.08,616.99,1.50,0000 0000 0000 0000 000000
2016-02-11 12:37:29,0.19,0.28,0.00,17.09,20.92,24.85,15.04,47.64,1031.24,2059.05,3505.24,3100.67,3516.32,600.03,616.90,1.55,0000 0000 0000 0000 000000
2016-02-11 12:42:30,0.20,0.29,0.00,17.11,20.92,24.87,15.11,47.56,1031.15,2059.04,3500.94,3097.54,3512.77,600.25,617.09,1.60,0000 0000 0000 0000 000000
2016-02-11 12:47:31,0.19,0.30,0.00,17.11,20.92,24.90,15.09,47.54,1031.13,2059.03,3496.77,3094.39,3509.13,600.28,617.09,1.65,0000 0000 0000 0000 000000
2016-02-11 12:52:33,0.19,0.32,0.00,17.09,20.92,24.90,15.12,47.58,1031.10,2059.01,3492.62,3091.30,3505.48,600.09,616.96,1.70,0000 0000 0000 0000 000000
2016-02-11 12:57:34,0.19,0.32,0.00,17.11,20.92,24.92,15.14,47.52,1031.20,2059.00,3488.50,3088.23,3502.05,600.10,616.99,1.75,0000 0000 0000 0000 000000